This demonstration page uses our WeatherBlox Daily Observations layout. Learn more.

Left ArrowRight Arrow

36.17497, -115.13722

Hourly Observations for August 4, 2021

Temp ( °F °C ) Dew Point ( °F °C ) Humidity (%) Winds ( mph kmh ) Pressure ( in mb ) Visibility ( mi km ) Precip ( " mm )
12:53 am 00:53 Clear 94 34.4 50 10 22 22 WNW 3 6 29.83 1010 10 16 N/A
1:53 am 01:53 Clear 93 33.9 46 7.8 20 20 N 7 11 29.84 1011 10 16 N/A
2:53 am 02:53 Clear 90 32.2 50 10 25 25 W 8 13 29.84 1011 10 16 N/A
3:53 am 03:53 Clear 88 31.1 52 11.1 29 29 NW 6 9 29.85 1011 10 16 N/A
4:53 am 04:53 Clear 88 31.1 51 10.6 28 28 WNW 5 7 29.86 1011 10 16 N/A
5:53 am 05:53 Sunny 86 30 51 10.6 30 30 NW 5 7 29.88 1012 10 16 N/A
6:53 am 06:53 Sunny 89 31.7 51 10.6 27 27 WNW 5 7 29.90 1013 10 16 N/A
7:53 am 07:53 Sunny 93 33.9 51 10.6 24 24 N 3 6 29.91 1013 10 16 N/A
8:53 am 08:53 Sunny 97 36.1 48 8.9 19 19 N N/A 29.91 1013 10 16 N/A
9:53 am 09:53 Sunny 101 38.3 47 8.3 16 16 SE 6 9 29.91 1013 10 16 N/A
10:53 am 10:53 Sunny 105 40.6 44 6.7 13 13 ESE 7 11 29.90 1013 10 16 N/A
11:53 am 11:53 Sunny 106 41.1 41 5 11 11 SSW 5 7 29.88 1012 10 16 N/A
12:53 pm 12:53 Sunny 108 42.2 38 3.3 9 9 SE 8 13 29.86 1011 10 16 N/A
1:53 pm 13:53 Sunny 110 43.3 39 3.9 9 9 W 6 9 29.84 1011 10 16 N/A
2:53 pm 14:53 Sunny 111 43.9 40 4.4 9 9 NW 3 6 29.81 1010 10 16 N/A
3:53 pm 15:53 Sunny 111 43.9 38 3.3 8 8 ESE 8 13 29.79 1009 10 16 N/A
4:53 pm 16:53 Sunny 111 43.9 36 2.2 8 8 SSE 7 11 29.77 1008 10 16 N/A
5:53 pm 17:53 Sunny 110 43.3 36 2.2 8 8 S 5 7 29.76 1008 10 16 N/A
6:53 pm 18:53 Sunny 111 43.9 35 1.7 7 7 N N/A 29.75 1008 10 16 N/A
7:53 pm 19:53 Clear 107 41.7 37 2.8 9 9 ESE 5 7 29.76 1008 10 16 N/A
8:53 pm 20:53 Clear 103 39.4 39 3.9 11 11 N N/A 29.77 1008 10 16 N/A
9:53 pm 21:53 Clear 99 37.2 46 7.8 16 16 NW 7 11 29.79 1009 10 16 N/A
10:53 pm 22:53 Clear 97 36.1 46 7.8 17 17 WNW 5 7 29.78 1008 10 16 N/A
11:53 pm 23:53 Clear 94 34.4 46 7.8 19 19 NW 7 11 29.78 1009 10 16 N/A

Powered by AerisWeather